Regional Weather Roundup
Issued by NWS

Home | Current Version | Previous Version | Graphics & Text | Print | Product List | Glossary On
Versions: 1 2 3 4 5 6 7 8 9 10 11 12 13 14 15 16 17 18 19 20 21 22 23 24 25 26 27 28 29 30 31 32 33 34 35 36 37 38 39 40 41 42 43 44 45 46 47 48 49 50
000
ASUS43 KDTX 211810
RWRMI
MICHIGAN HOURLY REGIONAL WEATHER ROUNDUP
NATIONAL WEATHER SERVICE DETROIT/PONTIAC MI
200 PM EDT SUN SEP 21 2014

NOTE: "FAIR" INDICATES FEW OR NO CLOUDS BELOW 12,000 FEET WITH NO
SIGNIFICANT WEATHER AND/OR OBSTRUCTION TO VISIBILITY.

MIZ047>049-052>055-059>063-066>070-074>076-081>083-211900-
SOUTHEAST LOWER MICHIGAN

CITY           SKY/WX    TMP DP  RH WIND       PRES   REMARKS
ADRIAN         CLOUDY    62  51  67 W18G26    29.75S
6HR MIN TEMP:  60; 6HR MAX TEMP:  66; 6HR PCP: TRACE;

ALMA           RAIN      58  55  89 NW14G20   29.70R
ANN ARBOR      CLOUDY    62  50  64 W16G23    29.71R
BAD AXE        DRIZZLE   56  56 100 N21G26    29.63R
6HR MIN TEMP:  56; 6HR MAX TEMP:  63;

CARO           RAIN      59  57  96 W12       29.64R
DETROIT CITY   LGT RAIN  63  52  67 NW10G23   29.68S
6HR MIN TEMP:  63; 6HR MAX TEMP:  70; 6HR PCP: TRACE;

DETROIT        PTSUNNY   65  51  60 SW20G30   29.70S
6HR MIN TEMP:  63; 6HR MAX TEMP:  69;

FLINT          CLOUDY    64  53  67 W13       29.67S
6HR MIN TEMP:  62; 6HR MAX TEMP:  67;

GROSSE ILE     LGT RAIN  64  52  63 W15G23    29.69S
HILLSDALE      CLOUDY    58  57  96 W9        29.76S
HOWELL         CLOUDY    61  53  75 W15G21    29.68F
6HR MIN TEMP:  57; 6HR MAX TEMP:  62;


CITY           SKY/WX    TMP DP  RH WIND       PRES   REMARKS
JACKSON        CLOUDY    60  52  74 W15G25    29.72R
6HR MIN TEMP:  59; 6HR MAX TEMP:  63;

LAMBERTVILLE   CLOUDY    64  50  59 W12G17    29.75R
LANSING        LGT RAIN  60  55  83 W16G24    29.70S
6HR MIN TEMP:  57; 6HR MAX TEMP:  63; 6HR PCP:  0.06;

LAPEER         CLOUDY    62  51  65 W16G25    29.66R
MASON          RAIN      60  53  80 W16G24    29.70S
MONROE         CLOUDY    66  48  52 W20G26    29.71R
MT. CLEMENS    PTSUNNY   65  48  53 W20G29    29.64S
6HR MIN TEMP:  63; 6HR MAX TEMP:  69;

PONTIAC        PTSUNNY   59  52  77 SW9       29.68R
6HR MIN TEMP:  58; 6HR MAX TEMP:  64; 6HR PCP: TRACE;

PORT HOPE        N/A     57  54  89 N10G28    29.61R
6HR MIN TEMP:  58; 6HR MAX TEMP:  65;

PORT HURON     PTSUNNY   66  54  63 W8        29.63F
TRI CITIES     PTSUNNY   64  58  80 W15       29.66F
6HR MIN TEMP:  60; 6HR MAX TEMP:  64; 6HR PCP:  0.17;

TROY           CLOUDY    63  51  66 SW10G16   29.70S
SAGINAW HB     CLOUDY    61  61 100 W12       29.65S
$$
MIZ043>046-050>051-056>058-064>065-071>073-077>080-211900-
SOUTHWEST LOWER MICHIGAN

CITY           SKY/WX    TMP DP  RH WIND       PRES   REMARKS
BATTLE CREEK   LGT RAIN  59  54  83 NW20G32   29.78R
6HR MIN TEMP:  57; 6HR MAX TEMP:  62; 6HR PCP:  0.02;

BENTON HARBOR  PTSUNNY   59  54  83 NW13G25   29.86R
6HR MIN TEMP:  57; 6HR MAX TEMP:  62; 6HR PCP:  0.06;

BIG RAPIDS     DRIZZLE   57  55  94 NW14G22   29.74R
6HR MIN TEMP:  55; 6HR MAX TEMP:  60; 6HR PCP:  0.17;

COLDWATER      CLOUDY    63  55  77 W17G24    29.77F
6HR MIN TEMP:  59; 6HR MAX TEMP:  64;

FREMONT        LGT RAIN  56  53  92 NW17G28   29.79R
HOLLAND        CLOUDY    61  53  75 NW20G36   29.82R
6HR MIN TEMP:  59; 6HR MAX TEMP:  62; 6HR PCP:  0.03;

GRAND RAPIDS   PTSUNNY   62  59  90 NW15G35   29.76R
6HR MIN TEMP:  58; 6HR MAX TEMP:  62; 6HR PCP:  0.02;

IONIA          LGT RAIN  59  56  91 NW21G28   29.72R
KALAMAZOO      LGT RAIN  60  54  80 NW20G29   29.80R
6HR MIN TEMP:  57; 6HR MAX TEMP:  62; 6HR PCP:  0.05;

LUDINGTON      CLOUDY    55  52  90 N18G28    29.85R
6HR MIN TEMP:  55; 6HR MAX TEMP:  57; 6HR PCP:  0.67;

MARSHALL       CLOUDY    61  54  77 W17G26    29.74R
MOUNT PLEASANT LGT RAIN  57  56  95 NW8       29.70R
6HR MIN TEMP:  56; 6HR MAX TEMP:  59; 6HR PCP:  0.57;

MUSKEGON       CLOUDY    58  51  78 NW28G39   29.82R
6HR MIN TEMP:  57; 6HR MAX TEMP:  61; 6HR PCP:  0.12;

SOUTH HAVEN    CLOUDY    60  55  85 NW14G30   29.84R
$$
MIZ016>042-211900-
NORTHERN LOWER MICHIGAN

CITY           SKY/WX    TMP DP  RH WIND       PRES   REMARKS
ALPENA         LGT RAIN  50  47  89 N15G23    29.74R
6HR MIN TEMP:  50; 6HR MAX TEMP:  55; 6HR PCP:  0.35;

BEAVER ISLAND  CLOUDY    51  46  81 N12G18    29.85R
6HR MIN TEMP:  51; 6HR MAX TEMP:  55;

BELLAIRE       CLOUDY    51  49  90 N3        29.81R
6HR MIN TEMP:  51; 6HR MAX TEMP:  58;

CADILLAC       DRIZZLE   50  49  96 N15G24    29.78R
CHARLEVOIX     CLOUDY    54  49  82 N18G28    29.85R
6HR MIN TEMP:  52; 6HR MAX TEMP:  58;

FRANKFORT      CLOUDY    54  49  81 N9G25     29.86R
GAYLORD        LGT RAIN  48  45  89 N12       29.79R
6HR MIN TEMP:  47; 6HR MAX TEMP:  54; 6HR PCP:  0.11;

GRAYLING       LGT RAIN  51  49  93 N14G23    29.78R
HARBOR SPRINGS CLOUDY    54  48  82 N6        29.80R
HOUGHTON LAKE  CLOUDY    52  49  89 N9G18     29.75R
6HR MIN TEMP:  52; 6HR MAX TEMP:  59; 6HR PCP:  0.02;

MANISTEE       CLOUDY    54  48  82 N12G31    29.85R
OSCODA         DRIZZLE   52  50  95 N17G25    29.68R
PELLSTON       CLOUDY    54  48  80 N16G23    29.80R
6HR MIN TEMP:  50; 6HR MAX TEMP:  54; 6HR PCP:  0.53;

ROGERS CITY    LGT RAIN  49  48  97 N8        29.77S
TRAVERSE CITY  CLOUDY    54  49  83 NW15G23   29.82R
6HR MIN TEMP:  53; 6HR MAX TEMP:  58; 6HR PCP:  0.18;

$$
MIZ007>008-015-211900-
EASTERN UPPER MICHIGAN

CITY           SKY/WX    TMP DP  RH WIND       PRES   REMARKS
KINROSS        CLOUDY    54  46  76 NW20G26   29.78R
6HR MIN TEMP:  50; 6HR MAX TEMP:  54;

MACKINAC ISLAN CLOUDY    53  47  81 N15G24    29.79R
6HR MIN TEMP:  49; 6HR MAX TEMP:  54; 6HR PCP:  0.04;

NEWBERRY       CLOUDY    46  39  75 N15G30    29.86R
S. S. MARIE    CLOUDY    51  40  65 N14G21    29.79R
6HR MIN TEMP:  50; 6HR MAX TEMP:  53;

MUNISING         N/A     47  41  80 N23G32    29.96R
6HR MIN TEMP:  47; 6HR MAX TEMP:  53; 6HR PCP:  0.01;

$$
MIZ004>006-011>014-085-211900-
CENTRAL UPPER MICHIGAN

CITY           SKY/WX    TMP DP  RH WIND       PRES   REMARKS
MANISTIQUE     CLOUDY    48  41  77 NW18G28   29.88R
ESCANABA       CLOUDY    50  39  66 N20G29    29.93R
6HR MIN TEMP:  48; 6HR MAX TEMP:  52;

MENOMINEE      CLOUDY    55  43  62 N12G20    29.93R
6HR MIN TEMP:  54; 6HR MAX TEMP:  55;

SAWYER-GWINN   CLOUDY    43  39  87 N15G29    29.97R
$$
MIZ001>003-009>011-084-211900-
WESTERN UPPER MICHIGAN

CITY           SKY/WX    TMP DP  RH WIND       PRES   REMARKS
IRON MOUNTAIN  CLOUDY    50  39  66 N23G30    29.97R
6HR MIN TEMP:  50; 6HR MAX TEMP:  53; 6HR PCP: TRACE;

HOUGHTON       PTSUNNY   48  36  63 N17G26    30.04R
6HR MIN TEMP:  43; 6HR MAX TEMP:  49; 6HR PCP:  0.02;

COPPER HARBOR    N/A     45  36  70 NE15G26   30.03R
6HR MIN TEMP:  45; 6HR MAX TEMP:  47;

IRONWOOD       CLOUDY    48  39  71 N7        30.07R
6HR MIN TEMP:  46; 6HR MAX TEMP:  48;

$$

ABBREVIATIONS USED IN REMARKS
   TC - TEMPERATURE IN CELSIUS
  WCI - WIND CHILL INDEX
   HX - HEAT INDEX
  VSB - VISIBILITY



USA.gov is the U.S. government's official web portal to all federal, state and local government web resources and services.